This demonstration page uses our WeatherBlox Daily Observations layout. Learn more.

Left ArrowRight Arrow

39.51506, -84.39828

Hourly Observations for November 12, 2021

Temp ( °F °C ) Dew Point ( °F °C ) Humidity (%) Winds ( mph kmh ) Pressure ( in mb ) Visibility ( mi km ) Precip ( " mm )
12:15 am 00:15 Clear 42 5.6 42 5.4 99 99 SSW 6 9 29.95 1014 10 16 0.00 0.00
12:35 am 00:35 Clear 41 5.1 41 5 99 99 SW 5 7 29.95 1014 10 16 0.00 0.00
12:55 am 00:55 Clear 41 5.1 41 5 99 99 SW 6 9 29.96 1015 10 16 0.00 0.00
1:15 am 01:15 Clear 40 4.6 40 4.5 99 99 SW 6 9 29.96 1015 10 16 0.00 0.00
1:35 am 01:35 Partly Cloudy 39 4.1 39 3.9 99 99 WSW 6 9 29.96 1015 7 11 0.00 0.00
1:55 am 01:55 Clear 41 5.1 41 4.9 99 99 SW 7 11 29.96 1015 10 16 0.01 0.25
2:15 am 02:15 Clear 41 4.8 40 4.7 99 99 Calm 29.96 1015 10 16 0.00 0.00
2:35 am 02:35 Partly Cloudy with Mist and Fog 40 4.3 39 4.1 99 99 W 5 7 29.96 1015 1 2 0.01 0.25
2:55 am 02:55 Mostly Cloudy with Fog 39 3.9 39 3.7 99 99 Calm 29.96 1015 1 1 0.02 0.51
3:15 am 03:15 Mostly Cloudy with Mist and Fog 40 4.5 40 4.3 99 99 SW 3 6 29.96 1015 1 2 0.01 0.25
3:35 am 03:35 Mostly Cloudy with Fog 39 3.8 38 3.6 99 99 Calm 29.96 1015 0 0 0.02 0.51
3:55 am 03:55 Mostly Cloudy with Fog 38 3.1 37 3 99 99 Calm 29.97 1015 1 1 0.03 0.76
4:15 am 04:15 Mostly Cloudy with Mist and Fog 38 3.3 38 3.1 99 99 SSW 5 7 29.97 1015 2 2 0.00 0.00
4:35 am 04:35 Mostly Cloudy with Mist and Fog 38 3.6 38 3.4 99 99 SW 3 6 29.97 1015 1 1 0.01 0.25
4:55 am 04:55 Mostly Cloudy with Fog 37 2.6 36 2.4 99 99 Calm 29.97 1015 1 1 0.02 0.51
5:15 am 05:15 Mostly Cloudy with Fog 35 1.9 35 1.7 99 99 Calm 29.96 1015 1 1 0.01 0.25
5:35 am 05:35 Mostly Cloudy with Fog 37 2.9 37 2.7 99 99 Calm 29.96 1014 0 0 0.02 0.51
5:55 am 05:55 Mostly Cloudy with Fog 36 2 35 1.7 98 98 Calm 29.96 1015 1 1 0.03 0.76
6:15 am 06:15 Mostly Cloudy with Fog 35 1.6 35 1.4 99 99 SSW 5 7 29.96 1015 1 1 0.01 0.25
6:35 am 06:35 Clear with Mist and Fog 36 2.4 36 2.2 99 99 SW 5 7 29.95 1014 3 4 0.02 0.51
6:55 am 06:55 Mostly Cloudy with Mist and Fog 36 2 35 1.8 99 99 SW 6 9 29.95 1014 1 1 0.03 0.76
7:15 am 07:15 Mostly Cloudy with Mist and Fog 37 2.9 37 2.7 99 99 SW 6 9 29.95 1014 2 3 0.01 0.25
7:35 am 07:35 Sunny with Mist and Fog 37 2.9 37 2.7 99 99 SW 6 9 29.96 1014 7 11 0.02 0.51
7:55 am 07:55 Sunny with Mist and Fog 37 3 37 3 100 100 SW 7 11 29.96 1014 7 11 0.03 0.76
8:15 am 08:15 Sunny 40 4.3 39 4.1 99 99 SSW 8 13 29.95 1014 10 16 0.00 0.00
8:35 am 08:35 Sunny 42 5.4 41 5.2 99 99 SSW 7 11 29.95 1014 10 16 0.01 0.25
8:55 am 08:55 Sunny 43 6.3 42 5.5 95 95 SSW 9 15 29.95 1014 10 16 0.01 0.25
9:15 am 09:15 Sunny 45 7.1 42 5.3 88 88 SSW 12 19 29.94 1014 10 16 0.01 0.25
9:35 am 09:35 Sunny 46 7.7 42 5.5 86 86 SSW 10 17 29.93 1014 10 16 0.01 0.25
9:55 am 09:55 Sunny 47 8.1 41 5.2 82 82 SSW 13 20 29.92 1013 10 16 0.02 0.51
10:15 am 10:15 Sunny 49 9.5 38 3.6 67 67 SSW 13 20 29.92 1013 10 16 0.00 0.00
10:35 am 10:35 Sunny 50 10 38 3.6 65 65 SSW 16 26 29.92 1013 10 16 0.01 0.25
10:55 am 10:55 Sunny 50 10.2 36 2.4 59 59 SSW 15 24 29.92 1013 10 16 0.01 0.25
11:15 am 11:15 Sunny 53 11.5 35 1.7 51 51 SW 22 35 29.91 1013 10 16 0.01 0.25
11:35 am 11:35 Sunny 53 11.7 33 0.8 47 47 SW 25 41 29.89 1012 10 16 0.01 0.25
11:55 am 11:55 Partly Cloudy 54 12 32 0.1 44 44 SW 20 31 29.88 1012 10 16 0.01 0.25
12:15 pm 12:15 Partly Cloudy 52 11.3 33 0.5 48 48 SW 22 35 29.89 1012 10 16 0.01 0.25
12:35 pm 12:35 Sunny 53 11.6 33 0.6 47 47 WSW 21 33 29.88 1012 10 16 0.01 0.25
12:55 pm 12:55 Partly Cloudy 53 11.4 28 -2.2 39 39 WSW 24 39 29.89 1012 10 16 0.01 0.25
1:15 pm 13:15 Cloudy 53 11.6 31 -0.5 43 43 SW 18 30 29.87 1012 10 16 0.00 0.00
1:35 pm 13:35 Cloudy 53 11.5 31 -0.7 43 43 SW 22 35 29.88 1012 10 16 0.00 0.00
1:55 pm 13:55 Cloudy 52 11.3 28 -2.5 38 38 WSW 20 31 29.88 1012 10 16 0.00 0.00
2:15 pm 14:15 Cloudy 52 11 27 -3 38 38 SW 23 37 29.89 1012 10 16 0.00 0.00
2:35 pm 14:35 Cloudy 51 10.6 27 -2.6 40 40 SW 23 37 29.88 1012 10 16 0.00 0.00
2:55 pm 14:55 Cloudy 51 10.3 26 -3.1 39 39 SW 18 30 29.88 1012 10 16 0.00 0.00
3:15 pm 15:15 Cloudy 50 10 28 -2.1 43 43 SW 21 33 29.87 1011 10 16 0.00 0.00
3:35 pm 15:35 Cloudy 49 9.2 27 -2.7 43 43 WSW 24 39 29.89 1012 10 16 0.00 0.00
3:55 pm 15:55 Cloudy 47 8.4 30 -1.1 52 52 SW 26 43 29.90 1013 10 16 0.00 0.00
4:15 pm 16:15 Cloudy 46 8 31 -0.5 55 55 SW 21 33 29.90 1013 10 16 0.00 0.00
4:35 pm 16:35 Cloudy 46 7.8 32 0.2 59 59 SW 18 30 29.90 1013 10 16 0.00 0.00
4:55 pm 16:55 Cloudy 46 7.6 33 0.5 61 61 SW 18 30 29.91 1013 10 16 0.00 0.00
5:15 pm 17:15 Cloudy 46 7.5 33 0.4 61 61 SW 17 28 29.91 1013 10 16 0.00 0.00
5:35 pm 17:35 Cloudy 45 7.3 33 0.7 63 63 SSW 10 17 29.90 1012 10 16 0.01 0.25
5:55 pm 17:55 Cloudy 45 7.1 33 0.4 63 63 SSW 13 20 29.91 1013 10 16 0.01 0.25
6:15 pm 18:15 Cloudy 45 7 33 0.6 64 64 SW 12 19 29.91 1013 10 16 0.00 0.00
6:35 pm 18:35 Cloudy 44 6.9 34 0.9 66 66 SSW 13 20 29.91 1013 10 16 0.00 0.00
6:55 pm 18:55 Cloudy 45 7 34 1 66 66 SW 10 17 29.91 1013 10 16 0.00 0.00
7:15 pm 19:15 Cloudy 44 6.9 35 1.6 69 69 SW 13 20 29.91 1013 10 16 0.00 0.00
7:35 pm 19:35 Cloudy 44 6.8 35 1.6 70 70 WSW 14 22 29.91 1013 10 16 0.00 0.00
7:55 pm 19:55 Cloudy with Rain 42 5.8 37 2.5 80 80 WNW 17 28 29.93 1014 7 11 0.00 0.00
8:15 pm 20:15 Cloudy with Light Rain 39 4 36 2.3 89 89 NW 12 19 29.94 1014 7 11 0.00 0.00
8:35 pm 20:35 Cloudy with Light Rain 39 3.7 36 2.2 90 90 NW 8 13 29.96 1014 10 16 0.01 0.25
8:55 pm 20:55 Cloudy with Light Rain 38 3.6 36 2 89 89 WNW 9 15 29.96 1014 10 16 0.01 0.25
9:15 pm 21:15 Cloudy with Light Rain 38 3.5 34 1.3 86 86 NW 6 9 29.97 1015 10 16 0.00 0.00
9:35 pm 21:35 Cloudy 38 3.3 35 1.6 89 89 NW 5 7 29.96 1014 10 16 0.00 0.00
9:55 pm 21:55 Cloudy with Drizzle 38 3.4 34 1.1 85 85 WNW 8 13 29.98 1015 10 16 0.00 0.00
10:15 pm 22:15 Cloudy with Light Rain 37 2.8 34 0.9 87 87 WNW 12 19 29.99 1015 10 16 0.00 0.00
10:35 pm 22:35 Cloudy with Light Rain 36 2.4 34 1.1 91 91 W 6 9 29.99 1016 10 16 0.01 0.25
10:55 pm 22:55 Cloudy 37 2.5 33 0.5 87 87 WSW 7 11 29.99 1016 10 16 0.01 0.25
11:15 pm 23:15 Cloudy 36 2.4 33 0.8 89 89 WSW 7 11 29.99 1016 10 16 0.00 0.00
11:35 pm 23:35 Cloudy 36 2.2 33 0.8 91 91 WSW 5 7 29.99 1016 10 16 0.00 0.00
11:55 pm 23:55 Cloudy with Drizzle 36 2.4 34 1.3 93 93 SW 7 11 29.98 1015 10 16 0.00 0.00

Powered by AerisWeather